Buffalo, NY

10:08 AM EDT on April 25, 2017 (GMT -0400)
Buffalo Niagara International

Weather History for KBUF - October, 2013

Change the Weather History Date:

Tuesday, October 8, 2013

  Actual Average Record
Temperature  
Mean Temperature 54 °F 54 °F  
Max Temperature 64 °F 62 °F 82 °F (1949)
Min Temperature 44 °F 45 °F 31 °F (2001)
Degree Days  
Heating Degree Days 11 12  
Month to date heating degree days 21 84  
Since 1 July heating degree days 189 246  
Cooling Degree Days 0 0  
Month to date cooling degree days 8 0  
Year to date cooling degree days 611 540  
Growing Degree Days 4 (Base 50)    
Moisture  
Dew Point 44 °F    
Average Humidity 71    
Maximum Humidity 93    
Minimum Humidity 48    
Precipitation  
Precipitation T in 0.13 in 1.46 in (1965)
Month to date precipitation 2.28 0.99  
Year to date precipitation 33.44 30.05  
Snow  
Snow 0.00 in 0.00 in T in (2000)
Month to date snowfall 0.0 0.1  
Since 1 July snowfall 0.0 0.1  
Since 1 September snowfall 0.0 0.1  
Snow Depth 0.00 in    
Sea Level Pressure  
Sea Level Pressure 30.27 in    
Wind  
Wind Speed 4 mph (WSW)    
Max Wind Speed 9 mph    
Max Gust Speed 13 mph    
Visibility 10 miles    
Events Rain    
T = Trace of Precipitation, MM = Missing Value Source: NWS Daily Summary

Daily Weather History Graph

Daily Weather History Graph

Search for Another Location

Airport or City:

Trip Planner

Search our weather history database for the weather conditions in past years. The results will help you decide how hot, cold, wet, or windy it might be!

Date:

Astronomy

Oct. 08, 2013 Rise Set
Actual Time 7:20 AM EDT 6:43 PM EDT
Civil Twilight 6:52 AM EDT 7:11 PM EDT
Nautical Twilight 6:19 AM EDT 7:44 PM EDT
Astronomical Twilight 5:46 AM EDT 8:17 PM EDT
Moon 11:18 AM EDT (10/8) 9:12 PM EDT (10/8)
Length of Visible Light 12h 19m
Length of Day
11h 23m
Waxing Crescent, 16% of the Moon is Illuminated
Oct 8
Waxing Crescent
Oct 11
First Quarter
Oct 18
Full
Oct 26
Last Quarter
Nov 3
New

Hourly Weather History & Observations

Time (EDT) Temp. Windchill Dew Point Humidity Pressure Visibility Wind Dir Wind Speed Gust Speed Precip Events Conditions
12:54 AM 51.1 °F - 48.0 °F 89% 30.09 in 10.0 mi WSW 4.6 mph - 0.00 in Rain Light Rain
1:54 AM 50.0 °F - 46.0 °F 86% 30.11 in 10.0 mi West 4.6 mph - 0.00 in   Scattered Clouds
2:54 AM 48.9 °F - 46.0 °F 90% 30.13 in 10.0 mi WSW 3.5 mph - N/A   Partly Cloudy
3:54 AM 48.0 °F - 45.0 °F 89% 30.15 in 10.0 mi West 5.8 mph - N/A   Partly Cloudy
4:54 AM 46.9 °F - 45.0 °F 93% 30.17 in 10.0 mi West 3.5 mph - N/A   Partly Cloudy
5:54 AM 45.0 °F 42.6 °F 43.0 °F 93% 30.19 in 10.0 mi South 4.6 mph - N/A   Clear
6:54 AM 46.0 °F 44.8 °F 43.0 °F 89% 30.22 in 10.0 mi SSW 3.5 mph - N/A   Partly Cloudy
7:54 AM 46.0 °F - 44.1 °F 93% 30.26 in 10.0 mi Calm Calm - N/A   Scattered Clouds
8:54 AM 52.0 °F - 46.9 °F 83% 30.28 in 10.0 mi Calm Calm - N/A   Scattered Clouds
9:54 AM 55.9 °F - 46.9 °F 72% 30.30 in 10.0 mi West 6.9 mph - N/A   Scattered Clouds
10:54 AM 57.9 °F - 45.0 °F 62% 30.31 in 10.0 mi NNW 4.6 mph - N/A   Scattered Clouds
11:54 AM 60.1 °F - 45.0 °F 57% 30.32 in 10.0 mi Calm Calm - N/A   Scattered Clouds
12:54 PM 61.0 °F - 43.0 °F 52% 30.32 in 10.0 mi WSW 5.8 mph - N/A   Scattered Clouds
1:54 PM 60.1 °F - 43.0 °F 53% 30.31 in 10.0 mi NW 5.8 mph - N/A   Scattered Clouds
2:54 PM 62.1 °F - 42.1 °F 48% 30.30 in 10.0 mi SW 4.6 mph - N/A   Partly Cloudy
3:54 PM 60.1 °F - 43.0 °F 53% 30.31 in 10.0 mi West 4.6 mph - N/A   Scattered Clouds
4:54 PM 63.0 °F - 43.0 °F 48% 30.30 in 10.0 mi Calm Calm - N/A   Scattered Clouds
5:54 PM 62.1 °F - 42.1 °F 48% 30.31 in 10.0 mi Calm Calm - N/A   Scattered Clouds
6:54 PM 59.0 °F - 43.0 °F 55% 30.31 in 10.0 mi NNW 3.5 mph - N/A   Partly Cloudy
7:54 PM 55.0 °F - 44.1 °F 67% 30.33 in 10.0 mi NE 5.8 mph - N/A   Partly Cloudy
8:54 PM 54.0 °F - 44.1 °F 69% 30.34 in 10.0 mi East 6.9 mph - N/A   Clear
9:54 PM 52.0 °F - 44.1 °F 74% 30.35 in 10.0 mi East 6.9 mph - N/A   Clear
10:54 PM 50.0 °F - 43.0 °F 77% 30.35 in 10.0 mi SE 6.9 mph - N/A   Clear
11:54 PM 48.9 °F - 43.0 °F 80% 30.35 in 10.0 mi ESE 5.8 mph - N/A   Clear